Time,TemperatureF,DewpointF,PressureIn,WindDirection,WindDirectionDegrees,WindSpeedMPH,WindSpeedGustMPH,Humidity,HourlyPrecipIn,Conditions,Clouds,dailyrainin,SolarRadiationWatts/m^2,SoftwareType,DateUTC
2013-03-02 00:05:00,32.5,31.7,29.59,North,6,0.0,0.0,97,0.00,,,0.01,0,Wunderground v.1.15,2013-03-02 05:05:00,
2013-03-02 00:35:00,32.6,31.8,29.59,North,6,0.0,0.0,97,0.00,,,0.01,0,Wunderground v.1.15,2013-03-02 05:35:00,
2013-03-02 01:05:00,32.6,31.8,29.59,North,6,0.0,0.0,97,0.00,,,0.01,0,Wunderground v.1.15,2013-03-02 06:05:00,
2013-03-02 01:34:00,32.6,31.8,29.59,North,6,0.0,0.0,97,0.00,,,0.01,0,Wunderground v.1.15,2013-03-02 06:34:00,
2013-03-02 02:05:00,32.5,32.0,29.58,North,6,0.0,0.0,98,0.00,,,0.01,0,Wunderground v.1.15,2013-03-02 07:05:00,
2013-03-02 02:34:00,32.5,32.0,29.58,North,6,0.0,0.0,98,0.00,,,0.01,0,Wunderground v.1.15,2013-03-02 07:34:00,
2013-03-02 03:05:00,32.4,31.6,29.57,North,5,0.0,0.0,97,0.00,,,0.01,0,Wunderground v.1.15,2013-03-02 08:05:00,
2013-03-02 03:34:00,32.4,31.6,29.58,North,6,0.0,0.0,97,0.00,,,0.01,0,Wunderground v.1.15,2013-03-02 08:34:00,
2013-03-02 04:05:00,32.2,31.4,29.58,North,6,0.0,0.0,97,0.00,,,0.01,0,Wunderground v.1.15,2013-03-02 09:05:00,
2013-03-02 04:34:00,32.0,31.2,29.57,North,6,0.0,0.0,97,0.00,,,0.01,0,Wunderground v.1.15,2013-03-02 09:34:00,
2013-03-02 05:05:00,32.1,31.3,29.58,North,6,0.0,0.0,97,0.00,,,0.01,0,Wunderground v.1.15,2013-03-02 10:05:00,
2013-03-02 06:05:00,31.9,31.1,29.58,North,6,0.0,0.0,97,0.00,,,0.01,0,Wunderground v.1.15,2013-03-02 11:05:00,
2013-03-02 06:34:00,31.8,30.8,29.58,North,5,0.0,0.0,96,0.00,,,0.01,5,Wunderground v.1.15,2013-03-02 11:34:00,
2013-03-02 07:05:00,31.8,30.8,29.59,North,6,0.0,0.0,96,0.00,,,0.01,16,Wunderground v.1.15,2013-03-02 12:05:00,
2013-03-02 07:34:00,31.9,30.9,29.59,North,6,0.0,0.0,96,0.00,,,0.01,25,Wunderground v.1.15,2013-03-02 12:34:00,
2013-03-02 08:05:00,32.1,30.8,29.59,North,6,0.0,0.0,95,0.00,,,0.01,49,Wunderground v.1.15,2013-03-02 13:05:00,
2013-03-02 08:35:00,32.9,31.1,29.59,North,1,8.0,13.0,93,0.00,,,0.01,132,Wunderground v.1.15,2013-03-02 13:35:00,
2013-03-02 09:05:00,33.3,31.0,29.59,North,355,12.0,12.0,91,0.00,,,0.01,153,Wunderground v.1.15,2013-03-02 14:05:00,
2013-03-02 09:34:00,33.9,31.3,29.58,North,4,9.0,9.0,90,0.00,,,0.02,271,Wunderground v.1.15,2013-03-02 14:34:00,
2013-03-02 10:05:00,34.9,31.4,29.58,NNE,22,10.0,10.0,87,0.00,,,0.04,392,Wunderground v.1.15,2013-03-02 15:05:00,
2013-03-02 10:34:00,35.2,31.1,29.58,NNE,22,12.0,22.0,85,0.05,,,0.06,260,Wunderground v.1.15,2013-03-02 15:34:00,
2013-03-02 11:05:00,36.4,31.7,29.58,NNW,346,7.0,7.0,83,0.00,,,0.07,308,Wunderground v.1.15,2013-03-02 16:05:00,
2013-03-02 11:34:00,37.0,31.7,29.58,North,5,10.0,19.0,81,0.00,,,0.07,401,Wunderground v.1.15,2013-03-02 16:34:00,
2013-03-02 12:05:00,36.7,32.3,29.57,North,10,12.0,12.0,84,0.00,,,0.07,295,Wunderground v.1.15,2013-03-02 17:05:00,
2013-03-02 12:34:00,36.2,32.7,29.57,North,4,10.0,19.0,87,0.00,,,0.00,248,Wunderground v.1.15,2013-03-02 17:34:00,
2013-03-02 13:05:00,35.8,33.4,29.56,North,355,7.0,13.0,91,0.00,,,0.01,223,Wunderground v.1.15,2013-03-02 18:05:00,
2013-03-02 13:34:00,37.0,34.3,29.56,North,6,5.0,15.0,90,0.00,,,0.01,279,Wunderground v.1.15,2013-03-02 18:34:00,
2013-03-02 14:05:00,37.1,33.6,29.57,NNE,20,9.0,9.0,87,0.00,,,0.01,209,Wunderground v.1.15,2013-03-02 19:05:00,
2013-03-02 14:35:00,36.6,33.7,29.57,North,351,8.0,16.0,89,0.00,,,0.01,132,Wunderground v.1.15,2013-03-02 19:35:00,
2013-03-02 15:05:00,36.5,33.8,29.57,North,357,7.0,7.0,90,0.00,,,0.01,130,Wunderground v.1.15,2013-03-02 20:05:00,
2013-03-02 15:34:00,36.6,33.9,29.57,North,4,6.0,16.0,90,0.00,,,0.01,90,Wunderground v.1.15,2013-03-02 20:34:00,
2013-03-02 16:05:00,36.3,34.2,29.57,North,360,6.0,18.0,92,0.00,,,0.01,76,Wunderground v.1.15,2013-03-02 21:05:00,
2013-03-02 16:35:00,36.1,34.3,29.57,NNW,332,5.0,5.0,93,0.00,,,0.01,51,Wunderground v.1.15,2013-03-02 21:35:00,
2013-03-02 17:05:00,35.8,34.2,29.58,NW,311,5.0,11.0,94,0.00,,,0.01,14,Wunderground v.1.15,2013-03-02 22:05:00,
2013-03-02 17:34:00,35.4,34.1,29.59,NW,325,4.0,4.0,95,0.00,,,0.01,0,Wunderground v.1.15,2013-03-02 22:34:00,
2013-03-02 18:05:00,35.1,33.8,29.60,North,6,3.0,3.0,95,0.00,,,0.01,0,Wunderground v.1.15,2013-03-02 23:05:00,
2013-03-02 18:35:00,34.2,33.2,29.61,NNW,333,2.0,2.0,96,0.00,,,0.02,0,Wunderground v.1.15,2013-03-02 23:35:00,
2013-03-02 19:05:00,33.9,32.9,29.60,NNW,343,4.0,7.0,96,0.00,,,0.03,0,Wunderground v.1.15,2013-03-03 00:05:00,
2013-03-02 19:34:00,33.9,33.1,29.59,North,352,4.0,9.0,97,0.00,,,0.04,0,Wunderground v.1.15,2013-03-03 00:34:00,
2013-03-02 20:05:00,33.9,33.1,29.60,NNW,340,3.0,3.0,97,0.00,,,0.04,0,Wunderground v.1.15,2013-03-03 01:05:00,
2013-03-02 20:35:00,33.9,33.1,29.60,North,359,4.0,9.0,97,0.00,,,0.04,0,Wunderground v.1.15,2013-03-03 01:35:00,
2013-03-02 21:05:00,34.0,33.2,29.60,North,1,4.0,9.0,97,0.00,,,0.05,0,Wunderground v.1.15,2013-03-03 02:05:00,
2013-03-02 21:34:00,34.0,33.2,29.59,North,9,5.0,5.0,97,0.00,,,0.06,0,Wunderground v.1.15,2013-03-03 02:34:00,
2013-03-02 22:05:00,33.9,33.1,29.58,North,352,5.0,5.0,97,0.00,,,0.07,0,Wunderground v.1.15,2013-03-03 03:05:00,
2013-03-02 22:34:00,34.0,33.2,29.58,North,355,5.0,10.0,97,0.00,,,0.08,0,Wunderground v.1.15,2013-03-03 03:34:00,
2013-03-02 23:05:00,34.1,33.3,29.58,North,360,7.0,11.0,97,0.00,,,0.09,0,Wunderground v.1.15,2013-03-03 04:05:00,
2013-03-02 23:35:00,34.2,33.4,29.57,North,358,6.0,6.0,97,0.00,,,0.10,0,Wunderground v.1.15,2013-03-03 04:35:00,